Lid_Strength_Index
0 -0 -0 -0 -0 -0 -0 -0 -0 -0 -0 -0 -0 -0 -1 -1 -1 -0 -0 0 -0 -0 -0 -1 -2 -2 2 6 7 3 -2 -1 2 2 3 3 4 5 7 7 7 8 8 8 8 8 8
0 0 0 1 1 0 0 0 0 -0 -0 -0 -0 0 0 0 -0 -0 -0 0 0 1 1 0 -0 -1 4 9 4 3 3 2 2 2 3 3 4 4 6 7 7 8 8 9 8 9 9
1 1 1 1 1 1 1 1 0 0 0 0 0 0 0 0 0 -0 -0 0 1 1 0 -1 -1 3 6 7 3 3 3 4 3 3 4 4 4 5 6 8 7 8 10 9 9 9 10
1 1 1 1 1 1 1 1 1 0 0 0 0 0 0 0 0 -0 1 1 1 1 -0 -0 -0 3 7 4 3 4 3 4 4 3 4 3 3 5 6 7 8 9 9 11 10 9 10
1 1 1 1 1 1 0 1 1 1 0 0 0 0 0 1 0 0 0 -0 -0 -0 -1 1 3 4 7 3 5 4 4 5 4 4 4 4 4 6 7 9 11 9 11 10 11 9 10
1 1 1 1 1 1 0 1 1 1 0 0 0 0 0 0 1 1 1 0 1 1 2 2 3 5 5 7 5 4 4 4 5 4 5 6 5 7 8 8 12 11 11 10 11 10 10
2 2 1 1 1 1 1 1 1 1 1 1 0 0 0 1 1 1 1 1 3 4 4 6 6 6 6 4 4 4 4 4 4 5 8 6 9 11 10 9 9 9 10 10 10 10 11
2 2 2 2 2 2 1 1 1 1 1 1 1 1 1 1 1 1 0 2 3 2 6 4 5 5 5 4 6 6 3 5 6 8 6 8 11 10 8 8 9 9 11 11 10 10 11
3 3 3 2 2 2 2 2 2 1 1 1 1 1 1 1 2 -1 0 2 0 -0 5 6 5 6 6 5 7 7 5 6 7 8 8 10 10 9 9 9 10 10 12 12 12 10 9
3 3 3 3 3 3 2 2 2 2 2 1 1 1 1 2 2 -0 1 -0 -1 -1 7 7 6 6 5 5 8 5 5 6 7 9 8 9 9 9 9 10 10 11 11 11 11 11 13
4 4 3 3 3 3 3 3 2 2 2 2 2 1 1 0 1 1 0 -1 -1 1 14 7 7 4 4 6 6 7 5 5 8 8 8 10 10 10 10 11 10 11 10 11 11 11 11
4 4 4 4 4 3 3 3 3 2 2 2 2 2 1 -0 -1 -0 -1 -1 1 10 13 8 6 7 6 6 7 6 6 5 6 7 8 9 8 9 10 9 9 9 10 10 10 11 14
4 4 4 4 4 4 4 3 3 3 3 2 2 2 -0 -1 2 -2 -2 2 10 15 7 9 8 7 7 7 7 7 7 7 8 10 10 9 9 9 9 9 8 9 10 12 14 15 15
5 4 4 4 4 4 4 4 4 3 3 2 2 3 -0 -1 -2 -2 1 6 15 8 8 6 7 7 8 7 7 7 7 8 7 8 9 10 12 10 9 10 12 10 11 13 17 16 14
5 5 5 4 4 4 4 4 4 4 3 3 3 -1 -1 -2 -2 -1 4 13 10 8 7 8 7 8 8 8 8 7 7 8 8 8 10 10 11 10 10 9 10 11 12 11 13 11 14
5 5 5 5 4 4 4 4 4 4 4 3 0 1 1 -2 -2 1 6 9 7 6 6 7 9 7 9 8 8 8 8 8 8 8 7 8 11 9 10 9 9 10 10 13 12 18 18
5 5 5 5 5 5 4 4 4 4 4 4 1 3 0 -2 -1 4 10 7 6 6 6 7 7 8 8 8 8 8 8 8 8 8 7 7 9 10 9 10 10 11 11 10 11 12 16
5 5 5 5 5 5 5 4 4 4 4 4 2 6 -1 -1 6 5 7 6 9 6 6 6 7 7 7 7 8 8 8 7 8 7 8 8 9 11 9 9 9 10 10 10 13 14 12
5 5 5 5 5 5 5 5 4 4 4 1 4 3 -0 0 12 9 5 6 6 7 6 7 7 6 6 7 9 7 7 8 8 8 8 8 9 13 12 10 9 10 10 10 10 10 14
6 5 5 5 5 5 5 5 5 4 4 2 3 8 4 4 3 6 6 7 8 7 7 6 6 6 7 7 6 8 8 8 8 8 8 8 9 11 14 11 9 11 9 9 10 14 13
5 5 5 5 5 5 5 5 5 5 4 1 3 6 4 11 7 6 5 6 8 8 7 7 8 7 8 8 7 8 7 8 8 9 9 8 10 9 8 8 8 9 10 10 11 11 13
5 5 5 5 5 5 5 6 6 5 5 2 5 5 4 5 5 5 7 7 7 7 7 8 8 7 7 9 8 8 7 7 7 8 8 7 11 9 10 8 10 11 10 10 9 10 12
5 5 5 5 5 5 5 5 6 5 4 2 1 1 3 6 5 6 6 6 7 6 6 6 7 7 8 7 6 5 5 5 5 7 8 8 9 10 13 9 10 13 10 9 9 9 10
5 5 5 5 5 5 5 5 6 5 5 2 1 2 5 8 6 6 5 5 6 6 7 6 6 7 6 5 6 6 7 7 6 7 6 9 9 10 13 11 19 10 6 7 9 7 7
5 5 5 5 5 5 5 5 6 6 5 3 0 2 4 7 6 5 5 6 5 5 6 6 6 5 4 6 8 9 9 8 8 7 8 8 9 11 14 13 11 9 8 9 9 9 6
4 5 5 5 5 5 5 5 6 6 5 3 1 0 2 6 7 4 5 5 6 6 6 6 5 4 5 7 8 13 13 10 11 11 8 8 9 10 12 15 17 9 7 7 7 12 6
4 4 5 5 5 5 5 5 5 6 6 5 2 0 2 6 4 3 6 6 4 5 6 5 6 7 5 8 12 12 12 9 11 11 12 12 11 13 13 14 12 7 6 7 12 11 5
5 5 5 5 5 5 5 5 5 5 5 6 2 1 2 4 4 3 3 4 5 5 7 5 6 6 7 10 10 11 11 9 9 9 9 11 12 13 12 14 17 5 8 10 7 4 4
4 5 5 5 5 5 5 5 4 5 5 6 4 1 2 4 4 2 2 2 2 3 4 4 6 6 6 8 8 8 10 8 9 12 7 11 9 11 10 11 6 5 5 5 4 5 4